Regional Weather Roundup
Issued by NWS

Home | Current Version | Previous Version | Text Only | Print | Product List | Glossary Off
Versions: 1 2 3 4 5 6 7 8 9 10 11 12 13 14 15 16 17 18 19 20 21 22 23 24 25 26 27 28 29 30 31 32 33 34 35 36 37 38 39 40 41 42 43 44 45 46 47 48 49 50

000
ASUS43 KMPX 012101
RWRMN
WEATHER ROUNDUP FOR MINNESOTA
NATIONAL WEATHER SERVICE TWIN CITIES/CHANHASSEN MN
400 PM CDT WED APR 01 2015


NOTE: "FAIR" INDICATES FEW OR NO CLOUDS BELOW 12,000 FEET WITH NO
SIGNIFICANT WEATHER AND/OR OBSTRUCTIONS TO VISIBILITY. N/A MEANS
CURRENT SKY AND/OR WEATHER CONDITIONS ARE NOT AVAILABLE.

MNZ060>063-068>070-012200-
   Twin Cities Metro

CITY           SKY/WX    TMP DP  RH WIND       PRES   REMARKS
TWIN CITIES    PTSUNNY   82  34  17 S23G44    29.49F
ST PAUL        MOSUNNY   82  34  17 S24G43    29.50F
CRYSTAL        PTSUNNY   82  34  17 S33G46    29.46F
BLAINE         PTSUNNY   81  36  19 S32G43    29.48F
LAKEVILLE      MOSUNNY   79  39  24 S28G46    29.51F
EDEN PRAIRIE   PTSUNNY   82  36  19 S33G47    29.47F
SOUTH ST PAUL  PTSUNNY   81  35  19 S23G36    29.51F
LAKE ELMO      FAIR      79  39  24 S31G43    29.54F
$$
MNZ001>005-007-008-013>017-022>024-027-028-012200-
   Northwest Minnesota

CITY           SKY/WX    TMP DP  RH WIND       PRES   REMARKS
BEMIDJI        CLOUDY    68  41  37 S16G24    29.36R
HALLOCK        PTSUNNY   61  43  51 W14       29.34R
ROSEAU         MOSUNNY   64  43  45 S8        29.33F
WARROAD        MOSUNNY   61  43  51 S8        29.36R
THIEF RVR FALL MOSUNNY   66  39  37 SW14      29.34S
CROOKSTON      PTSUNNY   66  39  37 NW28      29.35R
FOSSTON        PTSUNNY   70  43  37 SW18      29.35R
DETROIT LAKES  CLOUDY    68  37  32 SW15      29.39S
MOORHEAD       PTSUNNY   72  28  20 W26G32    29.39R
PARK RAPIDS    CLOUDY    68  39  34 SW23G32   29.39R
MAHNOMEN       FAIR      69  37  30 SW18G24   29.35F
$$
MNZ006-009>011-018-025>026-012200-
   North Central Minnesota

CITY           SKY/WX    TMP DP  RH WIND       PRES   REMARKS
BAUDETTE       CLOUDY    65  38  36 S14       29.35S
FLAG ISLAND    MOSUNNY   52  34  50 SE15      29.32F
INTL FALLS     CLOUDY    62  36  37 SE16G23   29.36F
WASKISH        PTSUNNY   64  39  39 S7G21     29.35R
BIG FORK       CLOUDY    64  36  34 S13G23    29.39F
LONGVILLE      CLOUDY    70  37  30 S16G24    29.40S
GRAND RAPIDS   CLOUDY    63  36  36 SE14G24   29.43F
ORR            CLOUDY    59  30  33 SE13G18   29.42F
COOK           CLOUDY    55  36  47 SE8G20    29.48S
WALKER         FAIR      68  40  36 S13G23    29.37F
$$
MNZ012-019>021-037-012200-
   Northeast Minnesota

CITY           SKY/WX    TMP DP  RH WIND       PRES   REMARKS
DULUTH         CLOUDY    41  32  70 SE15      29.54F
ELY            PTSUNNY   50  32  50 S13G20    29.53F
EVELETH        CLOUDY    52  32  46 SE12G17   29.50F
DULUTH HARBOR  CLOUDY    36  34  93 E17       29.58F
TWO HARBORS    CLOUDY    46  36  66 E12       29.53F
SILVER BAY     CLOUDY    41  32  70 NE9G16    29.55F
GRAND MARAIS     N/A     38  31  76 NE15G24   29.64F
G MARAIS ARPRT CLOUDY    37  27  65 E9G16     29.62F
$$
MNZ029>031-032-039>041-046>048-054>057-064-012200-
   West Central Minnesota

CITY           SKY/WX    TMP DP  RH WIND       PRES   REMARKS
FERGUS FALLS   CLOUDY    70  28  21 W18G26    29.42S
WHEATON        CLOUDY    64  36  34 W12G20    29.47R
MORRIS         CLOUDY    72  45  37 W13G18    29.44R
ALEXANDRIA     CLOUDY    69  43  38 SW17      29.45S
ELBOW LAKE     FAIR      67  41  39 W17       29.44R
WADENA         CLOUDY    66  45  45 SW15G22   29.40F
GLENWOOD       CLOUDY    72  46  40 SW9       29.47R
APPLETON       CLOUDY    77  41  27 W21G30    29.43R
BENSON         CLOUDY    73  43  33 W7        29.43R
ORTONVILLE     CLOUDY    72  37  28 W16G29    29.46R
MADISON        CLOUDY    79  39  24 W21G35    29.42R
WILLMAR          N/A     75  43  31 W9        29.46S
$$
MNZ033>034-036-042>043-049>051-058-059-012200-
   Central Minnesota

CITY           SKY/WX    TMP DP  RH WIND       PRES   REMARKS
ST CLOUD       LGT RAIN  73  43  33 S16       29.47R
SAUK CENTRE    FAIR      71  46  39 S16       29.43F
PAYNESVILLE    CLOUDY    70  43  37 S6        29.46F
AITKIN         CLOUDY    68  36  30 SE12G17   29.42F
PINE RIVER     CLOUDY    66  43  42 S8        29.45F
BRAINERD       CLOUDY    73  38  27 S20G29    29.41F
STAPLES        CLOUDY    70  41  35 SW17G24   29.42R
LONG PRAIRIE   FAIR      70  45  40 S17G25    29.44F
LITTLE FALLS   CLOUDY    73  39  29 SW16G24   29.44S
LITCHFIELD     CLOUDY    79  45  29 SW3       29.45S
BUFFALO        CLOUDY    79  39  24 S22G41    29.48S
MAPLE LAKE     CLOUDY    77  45  31 S18G29    29.47F
$$
MNZ037-044-045-052-053-012200-
   East Central Minnesota

CITY           SKY/WX    TMP DP  RH WIND       PRES   REMARKS
PRINCETON      LGT RAIN  68  48  49 S12G18    29.49R
MORA           CLOUDY    68  39  34 SE6       29.49F
CAMBRIDGE      LGT RAIN  75  50  41 SW9G20    29.48R
RUSH CITY      CLOUDY    65  44  48 S13       29.50R
MOOSE LAKE     CLOUDY    64  37  36 CALM      29.47F
HINCKLEY       FAIR      68  43  40 S13G18    29.50F
CLOQUET        CLOUDY    43  32  65 E10       29.52F THUNDER
MCGREGOR       CLOUDY    64  37  36 S13       29.46F
$$
MNZ071>073-080-081-089-090-097-098-012200-
   Southwest Minnesota

CITY           SKY/WX    TMP DP  RH WIND       PRES   REMARKS
MONTEVIDEO     CLOUDY    81  43  26 W22G35    29.43S
GRANITE FALLS  PTSUNNY   83  44  24 SW28G44   29.44S
CANBY          PTSUNNY   80  41  24 W25G37    29.45R
MARSHALL       PTSUNNY   81  43  26 SW33G47   29.45S
REDWOOD FALLS  PTSUNNY   82  43  25 SW32G48   29.43F
OLIVIA         CLOUDY    79  46  31 SW35G40   29.44R
PIPESTONE      CLOUDY    79  39  24 SW32G38   29.50F
WINDOM         MOSUNNY   84  37  18 S28G40    29.51F
WORTHINGTON    MOSUNNY   81  43  26 S31G46    29.53F
JACKSON        MOSUNNY   82  34  17 S26G40    29.56F
TRACY          MOSUNNY   81  44  27 SW28G43   29.48R
SLAYTON        MOSUNNY   79  35  20 S30G44    29.50S
$$
MNZ065>067-074>077-082>085-091>093-012200-
   South Central Minnesota

CITY           SKY/WX    TMP DP  RH WIND       PRES   REMARKS
MANKATO        MOSUNNY   81  36  19 S32G44    29.52F
NEW ULM        MOSUNNY   82  39  21 S32       29.46F
FAIRMONT       PTSUNNY   82  41  23 S35G40    29.55F
GLENCOE        PTSUNNY   82  47  29 S24G37    29.46F
FARIBAULT      MOSUNNY   81  37  21 S18G36    29.56F
OWATONNA       MOSUNNY   79  34  19 S23G38    29.58F
ALBERT LEA     MOSUNNY   79  30  17 S24G38    29.60F
$$
MNZ078>079-086>088-094>096-012200-
   Southeast Minnesota

CITY           SKY/WX    TMP DP  RH WIND       PRES   REMARKS
ROCHESTER      SUNNY     74  40  29 S31G46    29.61F
RED WING       MOSUNNY   81  34  18 SW21G32   29.57F
STANTON        SUNNY     79  38  23 S29G37    29.55F
DODGE CENTER   SUNNY     75  41  29 S26G36    29.61F
WINONA           N/A     79  34  19 SW18G28   29.64F
AUSTIN         SUNNY     75  37  25 S29G37    29.62F
PRESTON        SUNNY     76  33  21 S28G46    29.66F
$$
ABBREVIATIONS USED IN REMARKS
   TC - TEMPERATURES IN CELSIUS
  WCI - WIND CHILL INDEX
   HX - HEAT INDEX
  VSB - VISIBILITY
$$


USA.gov is the U.S. government's official web portal to all federal, state and local government web resources and services.